AZU2612 SBCF-SBPV

Flight info

Callsign AZU2612
Flight time 3h 20m
Altitude 36000
Route MIMIP UZ8 MABMA DCT ISEBU DCT DIKAL
Aircraft A21N/M-SDE3FGHIRWY/LB1

Departure

Time 2026-04-29 21:50
Airport Tancredo Neves International Airport (SBCF)

Arrival

Time 2026-04-30 01:10
Airport Governador Jorge Teixeira de Oliveira International Airport (SBPV)
Time Latitude Longitude Altitude Speed Heading
2026-04-29 21:39 -19.63347 -43.96376 2755 ft 0 kts 38°
2026-04-29 21:41 -19.63348 -43.96377 2755 ft 1 kts 38°
2026-04-29 21:41 -19.63360 -43.96387 2756 ft 2 kts 28°
2026-04-29 21:41 -19.63375 -43.96391 2756 ft 2 kts 358°
2026-04-29 21:42 -19.63390 -43.96387 2756 ft 2 kts 331°
2026-04-29 21:42 -19.63401 -43.96377 2756 ft 2 kts 304°
2026-04-29 21:42 -19.63409 -43.96363 2756 ft 2 kts 302°
2026-04-29 21:42 -19.63417 -43.96350 2756 ft 2 kts 302°
2026-04-29 21:43 -19.63424 -43.96337 2756 ft 1 kts 302°
2026-04-29 21:43 -19.63425 -43.96336 2756 ft 0 kts 302°
2026-04-29 21:44 -19.63424 -43.96336 2756 ft 0 kts 302°
2026-04-29 21:44 -19.63423 -43.96339 2756 ft 1 kts 302°
2026-04-29 21:45 -19.63414 -43.96354 2756 ft 4 kts 302°
2026-04-29 21:45 -19.63390 -43.96395 2757 ft 8 kts 302°
2026-04-29 21:45 -19.63341 -43.96457 2757 ft 13 kts 313°
2026-04-29 21:45 -19.63262 -43.96532 2757 ft 15 kts 322°
2026-04-29 21:46 -19.63192 -43.96601 2757 ft 11 kts 290°
2026-04-29 21:46 -19.63225 -43.96669 2757 ft 10 kts 230°
2026-04-29 21:46 -19.63266 -43.96728 2757 ft 9 kts 259°
2026-04-29 21:46 -19.63236 -43.96786 2757 ft 9 kts 318°
2026-04-29 21:47 -19.63179 -43.96839 2757 ft 11 kts 319°
2026-04-29 21:47 -19.63116 -43.96898 2757 ft 12 kts 319°
2026-04-29 21:47 -19.63049 -43.96959 2757 ft 12 kts 319°
2026-04-29 21:47 -19.62981 -43.97021 2757 ft 13 kts 319°
2026-04-29 21:48 -19.62924 -43.97075 2757 ft 10 kts 317°
2026-04-29 21:48 -19.62878 -43.97135 2757 ft 10 kts 279°
2026-04-29 21:48 -19.62911 -43.97199 2757 ft 10 kts 228°
2026-04-29 21:48 -19.62960 -43.97259 2757 ft 8 kts 229°
2026-04-29 21:49 -19.62970 -43.97263 2757 ft 0 kts 141°
2026-04-29 21:49 -19.63032 -43.97206 2757 ft 40 kts 138°
2026-04-29 21:49 -19.63416 -43.96850 2758 ft 104 kts 140°
2026-04-29 21:49 -19.64104 -43.96212 2758 ft 158 kts 139°
2026-04-29 21:50 -19.65007 -43.95381 3077 ft 175 kts 138°
2026-04-29 21:50 -19.65930 -43.94540 3616 ft 176 kts 138°
2026-04-29 21:50 -19.66875 -43.93673 3953 ft 186 kts 137°
2026-04-29 21:50 -19.67888 -43.92731 4251 ft 201 kts 137°
2026-04-29 21:51 -19.69064 -43.91787 4463 ft 223 kts 155°
2026-04-29 21:51 -19.70641 -43.91534 4821 ft 241 kts 190°
2026-04-29 21:51 -19.73038 -43.94107 5489 ft 278 kts 258°
2026-04-29 21:52 -19.73258 -43.96166 6098 ft 284 kts 268°
2026-04-29 21:52 -19.73342 -43.98232 6819 ft 286 kts 269°
2026-04-29 21:52 -19.73437 -44.00347 7543 ft 289 kts 268°
2026-04-29 21:52 -19.73565 -44.02482 8252 ft 292 kts 267°
2026-04-29 21:53 -19.73717 -44.04616 8957 ft 295 kts 266°
2026-04-29 21:53 -19.73888 -44.06781 9648 ft 299 kts 266°
2026-04-29 21:53 -19.74070 -44.08991 10345 ft 302 kts 266°
2026-04-29 21:53 -19.74261 -44.11248 10788 ft 313 kts 266°
2026-04-29 21:54 -19.74460 -44.13592 11063 ft 330 kts 266°
2026-04-29 21:54 -19.74672 -44.16061 11417 ft 342 kts 266°
2026-04-29 21:54 -19.74890 -44.18577 11979 ft 346 kts 267°
2026-04-29 21:54 -19.75109 -44.21103 12585 ft 347 kts 266°
2026-04-29 21:55 -19.75332 -44.23673 13170 ft 349 kts 267°
2026-04-29 21:55 -19.75553 -44.26241 13733 ft 351 kts 267°
2026-04-29 21:55 -19.75772 -44.28807 14267 ft 353 kts 267°
2026-04-29 21:55 -19.75994 -44.31403 14807 ft 355 kts 267°
2026-04-29 21:56 -19.76218 -44.34003 15326 ft 357 kts 267°
2026-04-29 21:56 -19.76440 -44.36616 15832 ft 358 kts 266°
2026-04-29 21:56 -19.76665 -44.39243 16321 ft 360 kts 266°
2026-04-29 21:56 -19.76752 -44.41883 16777 ft 361 kts 276°
2026-04-29 21:57 -19.76253 -44.44499 17244 ft 361 kts 290°
2026-04-29 21:57 -19.75214 -44.46891 17726 ft 361 kts 300°
2026-04-29 21:57 -19.73961 -44.49229 18204 ft 363 kts 300°
2026-04-29 21:57 -19.72702 -44.51542 18664 ft 365 kts 301°
2026-04-29 21:58 -19.71437 -44.53871 19135 ft 367 kts 300°
2026-04-29 21:58 -19.70169 -44.56215 19595 ft 369 kts 300°
2026-04-29 21:58 -19.68898 -44.58572 20059 ft 370 kts 300°
2026-04-29 21:58 -19.67621 -44.60945 20514 ft 372 kts 300°
2026-04-29 21:59 -19.66322 -44.63360 20972 ft 374 kts 301°
2026-04-29 21:59 -19.65036 -44.65752 21429 ft 376 kts 301°
2026-04-29 21:59 -19.63741 -44.68161 21892 ft 377 kts 301°
2026-04-29 21:59 -19.62439 -44.70580 22336 ft 379 kts 301°
2026-04-29 22:00 -19.61132 -44.73009 22763 ft 381 kts 301°
2026-04-29 22:00 -19.59820 -44.75443 23191 ft 383 kts 301°
2026-04-29 22:00 -19.58502 -44.77900 23600 ft 386 kts 300°
2026-04-29 22:00 -19.57199 -44.80385 23987 ft 388 kts 300°
2026-04-29 22:01 -19.55886 -44.82904 24370 ft 391 kts 300°
2026-04-29 22:01 -19.54578 -44.85438 24770 ft 393 kts 298°
2026-04-29 22:01 -19.53368 -44.88054 25160 ft 396 kts 295°
2026-04-29 22:01 -19.52291 -44.90756 25521 ft 399 kts 292°
2026-04-29 22:02 -19.51342 -44.93520 25880 ft 401 kts 290°
2026-04-29 22:02 -19.50412 -44.96312 26232 ft 403 kts 290°
2026-04-29 22:02 -19.49492 -44.99083 26577 ft 405 kts 290°
2026-04-29 22:02 -19.48556 -45.01900 26925 ft 407 kts 290°
2026-04-29 22:03 -19.47613 -45.04735 27249 ft 409 kts 290°
2026-04-29 22:03 -19.46661 -45.07591 27561 ft 412 kts 290°
2026-04-29 22:03 -19.45705 -45.10456 27857 ft 414 kts 290°
2026-04-29 22:03 -19.44739 -45.13348 28168 ft 416 kts 290°
2026-04-29 22:04 -19.43783 -45.16211 28481 ft 418 kts 290°
2026-04-29 22:04 -19.42807 -45.19134 28796 ft 419 kts 290°
2026-04-29 22:04 -19.41508 -45.23023 29210 ft 422 kts 290°
2026-04-29 22:04 -19.40859 -45.24963 29401 ft 423 kts 290°
2026-04-29 22:05 -19.39871 -45.27916 29731 ft 424 kts 290°
2026-04-29 22:05 -19.38902 -45.30814 30171 ft 422 kts 290°
2026-04-29 22:05 -19.36945 -45.36654 31038 ft 419 kts 290°
2026-04-29 22:06 -19.35985 -45.39520 31439 ft 417 kts 289°
2026-04-29 22:06 -19.35015 -45.42413 31820 ft 416 kts 290°
2026-04-29 22:06 -19.34044 -45.45303 32181 ft 416 kts 289°
2026-04-29 22:06 -19.33087 -45.48151 32533 ft 415 kts 289°
2026-04-29 22:07 -19.32117 -45.51031 32883 ft 414 kts 289°
2026-04-29 22:07 -19.31149 -45.53899 33258 ft 412 kts 289°
2026-04-29 22:07 -19.30196 -45.56724 33607 ft 411 kts 289°
2026-04-29 22:07 -19.29232 -45.59577 33958 ft 409 kts 289°
2026-04-29 22:08 -19.28285 -45.62384 34296 ft 408 kts 289°
2026-04-29 22:08 -19.27327 -45.65221 34593 ft 407 kts 289°
2026-04-29 22:08 -19.26376 -45.68038 34840 ft 408 kts 289°
2026-04-29 22:08 -19.25419 -45.70871 35025 ft 409 kts 289°
2026-04-29 22:09 -19.24468 -45.73686 35208 ft 410 kts 289°
2026-04-29 22:09 -19.23500 -45.76547 35403 ft 411 kts 289°
2026-04-29 22:09 -19.22540 -45.79385 35607 ft 411 kts 289°
2026-04-29 22:09 -19.21587 -45.82201 35798 ft 412 kts 289°
2026-04-29 22:10 -19.20615 -45.85069 35981 ft 412 kts 289°
2026-04-29 22:10 -19.19654 -45.87907 36132 ft 413 kts 289°
2026-04-29 22:10 -19.18685 -45.90768 36137 ft 414 kts 289°
2026-04-29 22:11 -19.16733 -45.96519 36145 ft 414 kts 289°
2026-04-29 22:11 -19.14789 -46.02235 36150 ft 413 kts 289°
2026-04-29 22:12 -19.12852 -46.07926 36151 ft 413 kts 289°
2026-04-29 22:12 -19.10913 -46.13628 36152 ft 413 kts 289°
2026-04-29 22:13 -19.08972 -46.19328 36159 ft 414 kts 289°
2026-04-29 22:13 -19.07026 -46.25038 36160 ft 414 kts 289°
2026-04-29 22:14 -19.05068 -46.30776 36163 ft 414 kts 289°
2026-04-29 22:14 -19.03114 -46.36497 36161 ft 415 kts 289°
2026-04-29 22:15 -19.01163 -46.42199 36159 ft 414 kts 289°
2026-04-29 22:15 -18.99209 -46.47911 36152 ft 414 kts 289°
2026-04-29 22:16 -18.97258 -46.53609 36150 ft 414 kts 289°
2026-04-29 22:16 -18.95294 -46.59335 36150 ft 414 kts 289°
2026-04-29 22:17 -18.93344 -46.65033 36151 ft 414 kts 289°
2026-04-29 22:17 -18.91495 -46.70826 36149 ft 414 kts 288°
2026-04-29 22:18 -18.89671 -46.76589 36150 ft 414 kts 288°
2026-04-29 22:18 -18.87852 -46.82310 36152 ft 414 kts 288°
2026-04-29 22:19 -18.86020 -46.88056 36154 ft 414 kts 288°
2026-04-29 22:19 -18.84180 -46.93815 36156 ft 414 kts 288°
2026-04-29 22:20 -18.82338 -46.99573 36163 ft 414 kts 288°
2026-04-29 22:20 -18.80493 -47.05333 36163 ft 414 kts 288°
2026-04-29 22:21 -18.78654 -47.11073 36161 ft 414 kts 289°
2026-04-29 22:21 -18.76805 -47.16833 36152 ft 414 kts 288°
2026-04-29 22:22 -18.74964 -47.22558 36145 ft 414 kts 289°
2026-04-29 22:22 -18.73107 -47.28313 36134 ft 414 kts 288°
2026-04-29 22:23 -18.71260 -47.34038 36132 ft 414 kts 288°
2026-04-29 22:23 -18.69405 -47.39784 36133 ft 413 kts 288°
2026-04-29 22:24 -18.67564 -47.45485 36130 ft 413 kts 288°
2026-04-29 22:24 -18.65711 -47.51217 36125 ft 414 kts 288°
2026-04-29 22:25 -18.63861 -47.56937 36122 ft 413 kts 288°
2026-04-29 22:25 -18.62000 -47.62678 36114 ft 414 kts 288°
2026-04-29 22:26 -18.60140 -47.68406 36109 ft 414 kts 289°
2026-04-29 22:26 -18.58276 -47.74130 36105 ft 413 kts 289°
2026-04-29 22:27 -18.56421 -47.79828 36097 ft 414 kts 289°
2026-04-29 22:27 -18.54556 -47.85551 36094 ft 414 kts 289°
2026-04-29 22:28 -18.52683 -47.91298 36087 ft 414 kts 289°
2026-04-29 22:28 -18.50817 -47.97018 36083 ft 414 kts 289°
2026-04-29 22:29 -18.48948 -48.02741 36081 ft 413 kts 289°
2026-04-29 22:29 -18.47087 -48.08432 36086 ft 414 kts 289°
2026-04-29 22:30 -18.45208 -48.14168 36098 ft 414 kts 289°
2026-04-29 22:30 -18.43329 -48.19896 36106 ft 414 kts 289°
2026-04-29 22:31 -18.41459 -48.25594 36108 ft 414 kts 289°
2026-04-29 22:31 -18.39579 -48.31312 36105 ft 414 kts 289°
2026-04-29 22:32 -18.37696 -48.37040 36099 ft 414 kts 289°
2026-04-29 22:32 -18.35818 -48.42754 36092 ft 414 kts 289°
2026-04-29 22:33 -18.33939 -48.48468 36084 ft 414 kts 289°
2026-04-29 22:33 -18.32062 -48.54167 36082 ft 414 kts 289°
2026-04-29 22:34 -18.30175 -48.59886 36072 ft 414 kts 289°
2026-04-29 22:34 -18.28278 -48.65609 36070 ft 414 kts 289°
2026-04-29 22:35 -18.26391 -48.71306 36067 ft 414 kts 289°
2026-04-29 22:35 -18.24491 -48.77039 36062 ft 414 kts 289°
2026-04-29 22:36 -18.22603 -48.82736 36054 ft 414 kts 289°
2026-04-29 22:36 -18.20714 -48.88425 36052 ft 414 kts 289°
2026-04-29 22:37 -18.18818 -48.94115 36046 ft 414 kts 289°
2026-04-29 22:37 -18.16907 -48.99839 36044 ft 413 kts 289°
2026-04-29 22:38 -18.15012 -49.05517 36044 ft 413 kts 289°
2026-04-29 22:38 -18.13118 -49.11189 36050 ft 414 kts 289°
2026-04-29 22:39 -18.11203 -49.16917 36052 ft 414 kts 289°
2026-04-29 22:39 -18.09297 -49.22604 36059 ft 414 kts 289°
2026-04-29 22:40 -18.07388 -49.28297 36062 ft 414 kts 289°
2026-04-29 22:40 -18.05482 -49.33979 36061 ft 414 kts 289°
2026-04-29 22:41 -18.03566 -49.39691 36054 ft 415 kts 289°
2026-04-29 22:41 -18.01651 -49.45395 36046 ft 415 kts 289°
2026-04-29 22:42 -17.99735 -49.51092 36038 ft 415 kts 289°
2026-04-29 22:42 -17.97813 -49.56806 36038 ft 414 kts 289°
2026-04-29 22:43 -17.95900 -49.62485 36036 ft 415 kts 289°
2026-04-29 22:43 -17.93967 -49.68220 36038 ft 415 kts 290°
2026-04-29 22:44 -17.92045 -49.73914 36038 ft 416 kts 290°
2026-04-29 22:44 -17.90119 -49.79617 36036 ft 416 kts 290°
2026-04-29 22:45 -17.88177 -49.85359 36035 ft 416 kts 290°
2026-04-29 22:45 -17.85919 -49.92023 36030 ft 415 kts 290°
2026-04-29 22:46 -17.84315 -49.96743 36030 ft 415 kts 290°
2026-04-29 22:46 -17.82376 -50.02455 36024 ft 415 kts 290°
2026-04-29 22:47 -17.80434 -50.08173 36022 ft 416 kts 290°
2026-04-29 22:47 -17.78492 -50.13877 36017 ft 416 kts 290°
2026-04-29 22:48 -17.76501 -50.19562 36015 ft 417 kts 291°
2026-04-29 22:48 -17.74487 -50.25241 36011 ft 416 kts 290°
2026-04-29 22:49 -17.72481 -50.30910 36014 ft 416 kts 290°
2026-04-29 22:49 -17.70462 -50.36621 36014 ft 417 kts 290°
2026-04-29 22:50 -17.68455 -50.42289 36020 ft 417 kts 290°
2026-04-29 22:50 -17.66440 -50.47979 36022 ft 417 kts 290°
2026-04-29 22:51 -17.64423 -50.53670 36022 ft 417 kts 290°
2026-04-29 22:51 -17.61391 -50.62213 36032 ft 418 kts 290°
2026-04-29 22:52 -17.59374 -50.67886 36034 ft 417 kts 291°
2026-04-29 22:52 -17.57353 -50.73566 36040 ft 418 kts 291°
2026-04-29 22:53 -17.55326 -50.79259 36045 ft 418 kts 291°
2026-04-29 22:53 -17.53284 -50.84987 36052 ft 418 kts 291°
2026-04-29 22:54 -17.51254 -50.90678 36060 ft 418 kts 291°
2026-04-29 22:54 -17.49226 -50.96356 36075 ft 418 kts 291°
2026-04-29 22:55 -17.47189 -51.02054 36085 ft 418 kts 291°
2026-04-29 22:55 -17.45145 -51.07761 36087 ft 419 kts 291°
2026-04-29 22:56 -17.43113 -51.13437 36088 ft 419 kts 291°
2026-04-29 22:56 -17.41067 -51.19149 36088 ft 419 kts 291°
2026-04-29 22:57 -17.39027 -51.24835 36090 ft 419 kts 291°
2026-04-29 22:57 -17.36974 -51.30544 36095 ft 419 kts 291°
2026-04-29 22:58 -17.34908 -51.36232 36098 ft 419 kts 291°
2026-04-29 22:58 -17.32834 -51.41938 36101 ft 419 kts 291°
2026-04-29 22:59 -17.30771 -51.47616 36108 ft 419 kts 291°
2026-04-29 22:59 -17.28693 -51.53334 36112 ft 419 kts 291°
2026-04-29 23:00 -17.26628 -51.59010 36116 ft 419 kts 291°
2026-04-29 23:00 -17.24548 -51.64722 36116 ft 419 kts 291°
2026-04-29 23:01 -17.22477 -51.70403 36115 ft 420 kts 291°
2026-04-29 23:01 -17.20399 -51.76100 36112 ft 420 kts 291°
2026-04-29 23:02 -17.18324 -51.81782 36109 ft 420 kts 291°
2026-04-29 23:02 -17.16246 -51.87469 36105 ft 420 kts 291°
2026-04-29 23:03 -17.14162 -51.93164 36100 ft 420 kts 291°
2026-04-29 23:03 -17.12066 -51.98887 36089 ft 420 kts 291°
2026-04-29 23:04 -17.09987 -52.04560 36076 ft 420 kts 291°
2026-04-29 23:04 -17.07905 -52.10238 36066 ft 421 kts 291°
2026-04-29 23:05 -17.05811 -52.15940 36055 ft 421 kts 291°
2026-04-29 23:05 -17.03708 -52.21646 36042 ft 422 kts 291°
2026-04-29 23:06 -17.01600 -52.27356 36037 ft 422 kts 291°
2026-04-29 23:06 -16.99491 -52.33073 36035 ft 422 kts 291°
2026-04-29 23:07 -16.97388 -52.38768 36032 ft 422 kts 291°
2026-04-29 23:07 -16.95281 -52.44470 36027 ft 422 kts 291°
2026-04-29 23:08 -16.93171 -52.50177 36021 ft 422 kts 291°
2026-04-29 23:08 -16.91053 -52.55898 36017 ft 422 kts 291°
2026-04-29 23:09 -16.88929 -52.61632 36011 ft 423 kts 291°
2026-04-29 23:09 -16.86823 -52.67310 36008 ft 423 kts 291°
2026-04-29 23:10 -16.84696 -52.73042 36002 ft 424 kts 291°
2026-04-29 23:10 -16.82568 -52.78771 35999 ft 424 kts 291°
2026-04-29 23:11 -16.80441 -52.84491 35996 ft 424 kts 291°
2026-04-29 23:11 -16.78316 -52.90201 35993 ft 424 kts 291°
2026-04-29 23:12 -16.76170 -52.95966 35990 ft 424 kts 291°
2026-04-29 23:12 -16.74038 -53.01685 35987 ft 424 kts 291°
2026-04-29 23:13 -16.71796 -53.07349 35992 ft 424 kts 295°
2026-04-29 23:13 -16.69001 -53.12769 36000 ft 424 kts 301°
2026-04-29 23:14 -16.65745 -53.17843 36007 ft 424 kts 304°
2026-04-29 23:14 -16.62379 -53.22916 36014 ft 424 kts 304°
2026-04-29 23:15 -16.59031 -53.27962 36019 ft 424 kts 304°
2026-04-29 23:15 -16.55663 -53.33038 36018 ft 424 kts 304°
2026-04-29 23:16 -16.52307 -53.38092 36017 ft 424 kts 304°
2026-04-29 23:16 -16.48956 -53.43136 36017 ft 424 kts 304°
2026-04-29 23:17 -16.45605 -53.48175 36016 ft 424 kts 304°
2026-04-29 23:17 -16.42243 -53.53228 36017 ft 425 kts 304°
2026-04-29 23:18 -16.38903 -53.58246 36018 ft 425 kts 304°
2026-04-29 23:18 -16.35523 -53.63319 36018 ft 425 kts 304°
2026-04-29 23:19 -16.32153 -53.68373 36017 ft 425 kts 304°
2026-04-29 23:19 -16.28786 -53.73419 36011 ft 425 kts 304°
2026-04-29 23:20 -16.25435 -53.78439 36005 ft 425 kts 304°
2026-04-29 23:20 -16.22054 -53.83497 35997 ft 425 kts 304°
2026-04-29 23:21 -16.18698 -53.88518 35989 ft 425 kts 304°
2026-04-29 23:21 -16.15307 -53.93586 35981 ft 426 kts 304°
2026-04-29 23:22 -16.11918 -53.98649 35973 ft 426 kts 304°
2026-04-29 23:22 -16.08534 -54.03699 35966 ft 426 kts 304°
2026-04-29 23:23 -16.05163 -54.08727 35965 ft 425 kts 304°
2026-04-29 23:23 -16.01787 -54.13759 35967 ft 426 kts 304°
2026-04-29 23:24 -15.98381 -54.18833 35967 ft 426 kts 304°
2026-04-29 23:24 -15.94982 -54.23891 35978 ft 426 kts 304°
2026-04-29 23:25 -15.91596 -54.28928 35982 ft 426 kts 305°
2026-04-29 23:25 -15.88216 -54.33954 35989 ft 426 kts 305°
2026-04-29 23:26 -15.84810 -54.39012 35993 ft 426 kts 305°
2026-04-29 23:26 -15.81416 -54.44049 35998 ft 425 kts 305°
2026-04-29 23:27 -15.78026 -54.49079 35992 ft 425 kts 305°
2026-04-29 23:27 -15.74637 -54.54103 35994 ft 425 kts 305°
2026-04-29 23:28 -15.71238 -54.59139 36001 ft 426 kts 305°
2026-04-29 23:28 -15.67848 -54.64158 36013 ft 425 kts 305°
2026-04-29 23:29 -15.64451 -54.69183 36021 ft 425 kts 305°
2026-04-29 23:29 -15.61082 -54.74165 36027 ft 425 kts 305°
2026-04-29 23:30 -15.57669 -54.79207 36031 ft 425 kts 305°
2026-04-29 23:30 -15.54285 -54.84204 36030 ft 424 kts 306°
2026-04-29 23:31 -15.50879 -54.89228 36029 ft 425 kts 305°
2026-04-29 23:31 -15.47491 -54.94223 36030 ft 425 kts 305°
2026-04-29 23:32 -15.44084 -54.99244 36029 ft 426 kts 305°
2026-04-29 23:32 -15.40689 -55.04243 36028 ft 425 kts 306°
2026-04-29 23:33 -15.37264 -55.09284 36030 ft 425 kts 306°
2026-04-29 23:33 -15.33857 -55.14293 36027 ft 425 kts 306°
2026-04-29 23:34 -15.30460 -55.19286 36021 ft 425 kts 306°
2026-04-29 23:34 -15.27066 -55.24269 36012 ft 425 kts 306°
2026-04-29 23:35 -15.23662 -55.29267 36002 ft 426 kts 306°
2026-04-29 23:35 -15.20234 -55.34295 36001 ft 426 kts 305°
2026-04-29 23:36 -15.16804 -55.39323 35999 ft 426 kts 306°
2026-04-29 23:36 -15.13387 -55.44329 35990 ft 426 kts 306°
2026-04-29 23:37 -15.09975 -55.49324 35984 ft 426 kts 306°
2026-04-29 23:37 -15.06567 -55.54310 35978 ft 426 kts 306°
2026-04-29 23:38 -15.03150 -55.59306 35973 ft 427 kts 306°
2026-04-29 23:38 -14.99705 -55.64339 35962 ft 427 kts 306°
2026-04-29 23:39 -14.96299 -55.69313 35955 ft 427 kts 306°
2026-04-29 23:39 -14.92863 -55.74327 35951 ft 427 kts 306°
2026-04-29 23:40 -14.89444 -55.79314 35950 ft 427 kts 306°
2026-04-29 23:40 -14.85999 -55.84335 35949 ft 427 kts 306°
2026-04-29 23:41 -14.82585 -55.89309 35947 ft 426 kts 306°
2026-04-29 23:41 -14.79133 -55.94333 35945 ft 427 kts 306°
2026-04-29 23:42 -14.75702 -55.99323 35941 ft 427 kts 306°
2026-04-29 23:42 -14.72262 -56.04324 35940 ft 427 kts 306°
2026-04-29 23:43 -14.68842 -56.09295 35940 ft 427 kts 306°
2026-04-29 23:43 -14.65400 -56.14292 35943 ft 427 kts 306°
2026-04-29 23:44 -14.61958 -56.19286 35949 ft 427 kts 306°
2026-04-29 23:44 -14.58512 -56.24281 35953 ft 427 kts 306°
2026-04-29 23:45 -14.55059 -56.29286 35961 ft 427 kts 306°
2026-04-29 23:45 -14.51623 -56.34262 35968 ft 427 kts 306°
2026-04-29 23:46 -14.48180 -56.39248 35969 ft 427 kts 306°
2026-04-29 23:46 -14.44730 -56.44239 35965 ft 427 kts 306°
2026-04-29 23:47 -14.41279 -56.49227 35962 ft 427 kts 306°
2026-04-29 23:47 -14.37828 -56.54213 35966 ft 428 kts 306°
2026-04-29 23:48 -14.34376 -56.59198 35970 ft 428 kts 306°
2026-04-29 23:48 -14.30908 -56.64202 35974 ft 428 kts 306°
2026-04-29 23:49 -14.27460 -56.69175 35977 ft 428 kts 306°
2026-04-29 23:49 -14.24011 -56.74146 35976 ft 427 kts 306°
2026-04-29 23:50 -14.20542 -56.79142 35974 ft 428 kts 306°
2026-04-29 23:51 -14.15349 -56.86617 35975 ft 429 kts 306°
2026-04-29 23:51 -14.11883 -56.91603 35975 ft 429 kts 307°
2026-04-29 23:52 -14.08392 -56.96621 35979 ft 428 kts 307°
2026-04-29 23:52 -14.04939 -57.01580 35986 ft 428 kts 306°
2026-04-29 23:53 -14.01456 -57.06579 35988 ft 428 kts 306°
2026-04-29 23:53 -13.98010 -57.11524 35990 ft 428 kts 306°
2026-04-29 23:54 -13.94530 -57.16515 35987 ft 429 kts 306°
2026-04-29 23:54 -13.91048 -57.21505 35985 ft 429 kts 306°
2026-04-29 23:55 -13.87578 -57.26478 35984 ft 430 kts 307°
2026-04-29 23:55 -13.84092 -57.31467 35986 ft 429 kts 307°
2026-04-29 23:56 -13.80608 -57.36451 35985 ft 429 kts 307°
2026-04-29 23:56 -13.77109 -57.41454 35982 ft 429 kts 306°
2026-04-29 23:57 -13.73636 -57.46417 35981 ft 429 kts 306°
2026-04-29 23:57 -13.70166 -57.51375 35980 ft 429 kts 307°
2026-04-29 23:58 -13.66656 -57.56385 35978 ft 430 kts 307°
2026-04-29 23:58 -13.63171 -57.61356 35982 ft 430 kts 307°
2026-04-29 23:59 -13.59684 -57.66328 35980 ft 429 kts 307°
2026-04-29 23:59 -13.56176 -57.71325 35977 ft 429 kts 307°
2026-04-30 00:00 -13.52692 -57.76289 35975 ft 429 kts 307°
2026-04-30 00:00 -13.49192 -57.81274 35976 ft 429 kts 307°
2026-04-30 00:01 -13.45710 -57.86231 35973 ft 429 kts 307°
2026-04-30 00:01 -13.42211 -57.91212 35975 ft 430 kts 307°
2026-04-30 00:02 -13.38695 -57.96204 35972 ft 430 kts 307°
2026-04-30 00:02 -13.35132 -58.01159 35983 ft 429 kts 307°
2026-04-30 00:03 -13.31567 -58.06101 35987 ft 430 kts 307°
2026-04-30 00:03 -13.28019 -58.11029 35989 ft 429 kts 307°
2026-04-30 00:04 -13.24495 -58.15926 35992 ft 429 kts 307°
2026-04-30 00:04 -13.20940 -58.20864 35982 ft 429 kts 307°
2026-04-30 00:05 -13.17390 -58.25793 35990 ft 430 kts 307°
2026-04-30 00:05 -13.13850 -58.30707 35985 ft 430 kts 307°
2026-04-30 00:06 -13.10285 -58.35650 35982 ft 430 kts 307°
2026-04-30 00:06 -13.06735 -58.40573 35981 ft 430 kts 307°
2026-04-30 00:07 -13.03179 -58.45499 35972 ft 431 kts 307°
2026-04-30 00:07 -12.99615 -58.50436 35968 ft 431 kts 307°
2026-04-30 00:08 -12.96025 -58.55406 35954 ft 431 kts 307°
2026-04-30 00:08 -12.92466 -58.60326 35956 ft 431 kts 307°
2026-04-30 00:09 -12.88881 -58.65280 35967 ft 432 kts 307°
2026-04-30 00:09 -12.85310 -58.70217 35961 ft 431 kts 307°
2026-04-30 00:10 -12.81735 -58.75156 35967 ft 431 kts 308°
2026-04-30 00:10 -12.78149 -58.80103 35970 ft 432 kts 307°
2026-04-30 00:11 -12.74570 -58.85040 35965 ft 432 kts 307°
2026-04-30 00:11 -12.70985 -58.89983 35969 ft 433 kts 307°
2026-04-30 00:12 -12.67385 -58.94943 35965 ft 433 kts 307°
2026-04-30 00:12 -12.63802 -58.99879 35966 ft 432 kts 307°
2026-04-30 00:13 -12.60226 -59.04802 35964 ft 431 kts 307°
2026-04-30 00:13 -12.56642 -59.09735 35960 ft 431 kts 307°
2026-04-30 00:14 -12.53057 -59.14664 35956 ft 432 kts 308°
2026-04-30 00:14 -12.49456 -59.19612 35956 ft 433 kts 307°
2026-04-30 00:15 -12.45868 -59.24540 35957 ft 433 kts 307°
2026-04-30 00:15 -12.42255 -59.29501 35953 ft 433 kts 307°
2026-04-30 00:16 -12.38658 -59.34439 35949 ft 433 kts 308°
2026-04-30 00:16 -12.35063 -59.39368 35953 ft 432 kts 308°
2026-04-30 00:17 -12.31465 -59.44298 35961 ft 433 kts 308°
2026-04-30 00:17 -12.27878 -59.49213 35960 ft 433 kts 308°
2026-04-30 00:18 -12.24254 -59.54176 35962 ft 433 kts 308°
2026-04-30 00:18 -12.20666 -59.59089 35959 ft 433 kts 308°
2026-04-30 00:19 -12.17050 -59.64034 35963 ft 433 kts 308°
2026-04-30 00:19 -12.13438 -59.68972 35960 ft 434 kts 308°
2026-04-30 00:20 -12.09823 -59.73910 35962 ft 434 kts 308°
2026-04-30 00:20 -12.06192 -59.78870 35964 ft 434 kts 308°
2026-04-30 00:21 -12.02589 -59.83789 35972 ft 435 kts 308°
2026-04-30 00:21 -11.98969 -59.88730 35969 ft 435 kts 308°
2026-04-30 00:22 -11.95347 -59.93671 35970 ft 434 kts 308°
2026-04-30 00:22 -11.91711 -59.98622 35968 ft 435 kts 308°
2026-04-30 00:23 -11.88070 -60.03582 35966 ft 435 kts 308°
2026-04-30 00:23 -11.84459 -60.08499 35968 ft 436 kts 308°
2026-04-30 00:24 -11.80799 -60.13481 35958 ft 436 kts 308°
2026-04-30 00:24 -11.77143 -60.18455 35956 ft 436 kts 308°
2026-04-30 00:25 -11.73517 -60.23386 35946 ft 435 kts 308°
2026-04-30 00:25 -11.69868 -60.28342 35940 ft 436 kts 308°
2026-04-30 00:26 -11.66220 -60.33297 35938 ft 436 kts 308°
2026-04-30 00:26 -11.62577 -60.38244 35937 ft 436 kts 308°
2026-04-30 00:27 -11.58936 -60.43185 35930 ft 436 kts 308°
2026-04-30 00:27 -11.55285 -60.48137 35923 ft 436 kts 308°
2026-04-30 00:28 -11.51656 -60.53056 35922 ft 436 kts 308°
2026-04-30 00:28 -11.48009 -60.57998 35925 ft 436 kts 308°
2026-04-30 00:29 -11.44361 -60.62939 35929 ft 436 kts 308°
2026-04-30 00:29 -11.40709 -60.67882 35933 ft 435 kts 308°
2026-04-30 00:30 -11.37054 -60.72826 35933 ft 435 kts 308°
2026-04-30 00:30 -11.33402 -60.77764 35932 ft 435 kts 308°
2026-04-30 00:31 -11.29761 -60.82687 35929 ft 435 kts 308°
2026-04-30 00:31 -11.26131 -60.87590 35922 ft 435 kts 308°
2026-04-30 00:32 -11.22476 -60.92527 35921 ft 435 kts 308°
2026-04-30 00:32 -11.18830 -60.97447 35913 ft 435 kts 308°
2026-04-30 00:33 -11.15185 -61.02363 35905 ft 435 kts 308°
2026-04-30 00:33 -11.11542 -61.07277 35902 ft 435 kts 308°
2026-04-30 00:34 -11.07884 -61.12208 35900 ft 435 kts 308°
2026-04-30 00:34 -11.04245 -61.17109 35897 ft 435 kts 308°
2026-04-30 00:35 -11.00597 -61.22022 35895 ft 435 kts 308°
2026-04-30 00:35 -10.96947 -61.26934 35895 ft 435 kts 308°
2026-04-30 00:36 -10.93300 -61.31842 35900 ft 436 kts 308°
2026-04-30 00:36 -10.89632 -61.36774 35907 ft 436 kts 308°
2026-04-30 00:37 -10.85969 -61.41696 35911 ft 436 kts 308°
2026-04-30 00:37 -10.82315 -61.46607 35919 ft 436 kts 308°
2026-04-30 00:38 -10.78649 -61.51530 35926 ft 436 kts 308°
2026-04-30 00:38 -10.74965 -61.56474 35920 ft 436 kts 308°
2026-04-30 00:39 -10.71300 -61.61392 35909 ft 437 kts 308°
2026-04-30 00:39 -10.67627 -61.66317 35901 ft 437 kts 308°
2026-04-30 00:40 -10.63940 -61.71258 35894 ft 437 kts 308°
2026-04-30 00:40 -10.60261 -61.76188 35890 ft 437 kts 308°
2026-04-30 00:41 -10.56592 -61.81102 35889 ft 437 kts 308°
2026-04-30 00:41 -10.52928 -61.86006 35887 ft 438 kts 308°
2026-04-30 00:42 -10.49239 -61.90945 35885 ft 439 kts 308°
2026-04-30 00:42 -10.45543 -61.95887 35880 ft 439 kts 308°
2026-04-30 00:43 -10.41850 -62.00823 35878 ft 438 kts 308°
2026-04-30 00:43 -10.38140 -62.05782 35877 ft 439 kts 308°
2026-04-30 00:44 -10.34459 -62.10699 35878 ft 439 kts 308°
2026-04-30 00:44 -10.30767 -62.15630 35878 ft 439 kts 308°
2026-04-30 00:45 -10.27066 -62.20568 35879 ft 439 kts 308°
2026-04-30 00:45 -10.23369 -62.25499 35879 ft 439 kts 308°
2026-04-30 00:46 -10.19673 -62.30428 35878 ft 440 kts 308°
2026-04-30 00:46 -10.15964 -62.35369 35877 ft 440 kts 308°
2026-04-30 00:47 -10.12242 -62.40329 35877 ft 440 kts 308°
2026-04-30 00:47 -10.08537 -62.45262 35335 ft 447 kts 309°
2026-04-30 00:47 -10.06649 -62.47776 34443 ft 452 kts 309°
2026-04-30 00:48 -10.04738 -62.50317 33559 ft 454 kts 308°
2026-04-30 00:48 -10.02831 -62.52854 32809 ft 453 kts 308°
2026-04-30 00:48 -10.00893 -62.55432 32138 ft 452 kts 309°
2026-04-30 00:48 -9.98999 -62.57952 31463 ft 452 kts 308°
2026-04-30 00:49 -9.97086 -62.60498 30800 ft 451 kts 309°
2026-04-30 00:49 -9.95193 -62.63015 30129 ft 450 kts 309°
2026-04-30 00:49 -9.93299 -62.65533 29444 ft 450 kts 309°
2026-04-30 00:49 -9.91390 -62.68068 28793 ft 448 kts 309°
2026-04-30 00:50 -9.89526 -62.70546 28334 ft 443 kts 309°
2026-04-30 00:50 -9.87663 -62.73022 27844 ft 439 kts 309°
2026-04-30 00:50 -9.85814 -62.75477 27328 ft 435 kts 309°
2026-04-30 00:50 -9.83977 -62.77918 26816 ft 432 kts 309°
2026-04-30 00:51 -9.82165 -62.80322 26317 ft 429 kts 309°
2026-04-30 00:51 -9.80372 -62.82700 25813 ft 426 kts 309°
2026-04-30 00:51 -9.78571 -62.85091 25312 ft 423 kts 309°
2026-04-30 00:51 -9.76794 -62.87448 24814 ft 420 kts 309°
2026-04-30 00:52 -9.75014 -62.89811 24315 ft 418 kts 308°
2026-04-30 00:52 -9.73272 -62.92122 23827 ft 415 kts 309°
2026-04-30 00:52 -9.71516 -62.94451 23333 ft 413 kts 308°
2026-04-30 00:52 -9.69769 -62.96767 22839 ft 411 kts 308°
2026-04-30 00:53 -9.68050 -62.99048 22349 ft 410 kts 308°
2026-04-30 00:53 -9.66328 -63.01331 21862 ft 408 kts 309°
2026-04-30 00:53 -9.64610 -63.03610 21379 ft 406 kts 309°
2026-04-30 00:53 -9.62883 -63.05899 20904 ft 404 kts 309°
2026-04-30 00:54 -9.61181 -63.08154 20435 ft 401 kts 309°
2026-04-30 00:54 -9.59488 -63.10393 19980 ft 398 kts 309°
2026-04-30 00:54 -9.57808 -63.12618 19513 ft 396 kts 309°
2026-04-30 00:54 -9.56144 -63.14822 19043 ft 393 kts 309°
2026-04-30 00:55 -9.54478 -63.17030 18569 ft 391 kts 309°
2026-04-30 00:55 -9.52838 -63.19202 18110 ft 388 kts 309°
2026-04-30 00:55 -9.49570 -63.23528 17204 ft 382 kts 309°
2026-04-30 00:56 -9.47979 -63.25635 16765 ft 379 kts 308°
2026-04-30 00:56 -9.46387 -63.27742 16318 ft 376 kts 309°
2026-04-30 00:56 -9.44786 -63.29862 15863 ft 374 kts 309°
2026-04-30 00:56 -9.42695 -63.32624 15260 ft 370 kts 308°
2026-04-30 00:57 -9.41643 -63.33996 14955 ft 368 kts 310°
2026-04-30 00:57 -9.39960 -63.35931 14496 ft 365 kts 315°
2026-04-30 00:57 -9.38124 -63.37722 14035 ft 362 kts 319°
2026-04-30 00:57 -9.36249 -63.39413 13589 ft 359 kts 319°
2026-04-30 00:58 -9.34384 -63.41084 13147 ft 356 kts 319°
2026-04-30 00:58 -9.32539 -63.42736 12690 ft 354 kts 319°
2026-04-30 00:58 -9.30685 -63.44396 12227 ft 352 kts 319°
2026-04-30 00:58 -9.28843 -63.46049 11758 ft 351 kts 319°
2026-04-30 00:59 -9.27022 -63.47684 11295 ft 349 kts 320°
2026-04-30 00:59 -9.25214 -63.49306 10838 ft 347 kts 319°
2026-04-30 00:59 -9.23413 -63.50923 10391 ft 345 kts 319°
2026-04-30 00:59 -9.21649 -63.52507 10143 ft 335 kts 319°
2026-04-30 01:00 -9.19914 -63.54067 10019 ft 322 kts 319°
2026-04-30 01:00 -9.18264 -63.55550 9897 ft 310 kts 319°
2026-04-30 01:00 -9.16662 -63.56988 9624 ft 304 kts 319°
2026-04-30 01:00 -9.15100 -63.58392 9248 ft 303 kts 319°
2026-04-30 01:01 -9.13516 -63.59815 8878 ft 301 kts 319°
2026-04-30 01:01 -9.11956 -63.61217 8518 ft 299 kts 319°
2026-04-30 01:01 -9.10402 -63.62613 8165 ft 296 kts 320°
2026-04-30 01:01 -9.08854 -63.64001 7812 ft 294 kts 320°
2026-04-30 01:02 -9.07320 -63.65377 7460 ft 291 kts 320°
2026-04-30 01:02 -9.05802 -63.66739 7116 ft 289 kts 320°
2026-04-30 01:02 -9.04316 -63.68072 6778 ft 286 kts 320°
2026-04-30 01:02 -9.02833 -63.69404 6439 ft 284 kts 320°
2026-04-30 01:03 -9.01350 -63.70735 6095 ft 282 kts 320°
2026-04-30 01:03 -8.99894 -63.72041 5762 ft 280 kts 320°
2026-04-30 01:03 -8.98440 -63.73346 5428 ft 278 kts 320°
2026-04-30 01:03 -8.96999 -63.74639 5095 ft 276 kts 320°
2026-04-30 01:04 -8.95566 -63.75922 4760 ft 273 kts 320°
2026-04-30 01:04 -8.94173 -63.77171 4434 ft 262 kts 320°
2026-04-30 01:04 -8.92817 -63.78386 4123 ft 256 kts 319°
2026-04-30 01:04 -8.91741 -63.79607 3830 ft 256 kts 304°
2026-04-30 01:05 -8.91004 -63.81245 3629 ft 251 kts 289°
2026-04-30 01:05 -8.90523 -63.82880 3609 ft 237 kts 287°
2026-04-30 01:05 -8.90087 -63.84454 3571 ft 224 kts 287°
2026-04-30 01:05 -8.89667 -63.85943 3550 ft 219 kts 287°
2026-04-30 01:06 -8.89241 -63.87416 3508 ft 219 kts 288°
2026-04-30 01:06 -8.88520 -63.88747 3345 ft 214 kts 320°
2026-04-30 01:06 -8.87226 -63.89417 3187 ft 208 kts 353°
2026-04-30 01:06 -8.85779 -63.89497 2990 ft 208 kts
2026-04-30 01:07 -8.84334 -63.89473 2775 ft 201 kts
2026-04-30 01:07 -8.82938 -63.89508 2428 ft 197 kts 360°
2026-04-30 01:07 -8.81610 -63.89587 2157 ft 184 kts 359°
2026-04-30 01:07 -8.80370 -63.89669 1924 ft 171 kts 359°
2026-04-30 01:08 -8.79220 -63.89741 1724 ft 158 kts 360°
2026-04-30 01:08 -8.78154 -63.89803 1499 ft 146 kts 359°
2026-04-30 01:08 -8.77162 -63.89861 1325 ft 142 kts 359°
2026-04-30 01:08 -8.76176 -63.89922 1131 ft 142 kts 358°
2026-04-30 01:09 -8.75180 -63.90002 924 ft 141 kts 358°
2026-04-30 01:09 -8.74197 -63.90048 748 ft 141 kts 358°
2026-04-30 01:09 -8.73209 -63.90109 554 ft 141 kts 358°
2026-04-30 01:09 -8.72231 -63.90160 385 ft 140 kts 357°
2026-04-30 01:10 -8.71272 -63.90216 301 ft 128 kts 356°
2026-04-30 01:10 -8.70540 -63.90260 300 ft 75 kts 358°
2026-04-30 01:10 -8.70208 -63.90278 300 ft 31 kts 356°
2026-04-30 01:10 -8.70044 -63.90287 300 ft 20 kts 356°
2026-04-30 01:11 -8.69911 -63.90292 300 ft 10 kts 11°
2026-04-30 01:11 -8.69890 -63.90239 300 ft 10 kts 129°
2026-04-30 01:11 -8.69942 -63.90186 300 ft 10 kts 128°
2026-04-30 01:11 -8.70004 -63.90145 300 ft 11 kts 173°
2026-04-30 01:12 -8.70089 -63.90140 300 ft 12 kts 176°
2026-04-30 01:12 -8.70177 -63.90135 300 ft 13 kts 176°
2026-04-30 01:12 -8.70272 -63.90129 300 ft 14 kts 176°
2026-04-30 01:12 -8.70377 -63.90122 300 ft 15 kts 177°
2026-04-30 01:13 -8.70486 -63.90117 300 ft 15 kts 177°
2026-04-30 01:13 -8.70597 -63.90110 300 ft 16 kts 175°
2026-04-30 01:13 -8.70712 -63.90103 300 ft 16 kts 176°
2026-04-30 01:14 -8.70939 -63.90089 300 ft 16 kts 176°
2026-04-30 01:14 -8.71055 -63.90083 300 ft 16 kts 176°
2026-04-30 01:14 -8.71172 -63.90076 300 ft 16 kts 176°
2026-04-30 01:14 -8.71289 -63.90068 300 ft 16 kts 176°
2026-04-30 01:15 -8.71382 -63.90063 300 ft 7 kts 177°
2026-04-30 01:15 -8.71427 -63.90046 300 ft 7 kts 118°
2026-04-30 01:15 -8.71429 -63.89988 300 ft 9 kts 87°
2026-04-30 01:15 -8.71427 -63.89947 300 ft 3 kts 87°
2026-04-30 01:16 -8.71427 -63.89936 300 ft 0 kts 87°